When you browse on this site, cookies collect data to enhance your experience and personalize the content and advertising you see.
Visit our Privacy Policy to learn more. By continuing to use the site, you agree to this use of cookies and data.
  • In Hungary
  • List of Countries
  • For 7 days
  • Water Temperature
  • Satellite Maps
  • Weather Map
  • News
  • Weather Widgets
  • user-avatar
    Login

    Hourly Weather Bashirovo

    Today, 17 November, Saturday

    Time Temperature Precipitation Wind Pressure Humidity
    00:00 -3°C° 0 mm 1 mps 766 mmHg 30%
    01:00 -3°C° 0 mm 1 mps 766 mmHg 30%
    02:00 -3°C° 0 mm 1 mps 765 mmHg 30%
    03:00 -6°C° 0 mm 2 mps 765 mmHg 30%
    04:00 -6°C° 0 mm 2 mps 765 mmHg 30%
    05:00 -6°C° 0 mm 2 mps 764 mmHg 30%
    06:00 -6°C° 0 mm 2 mps 764 mmHg 30%
    07:00 -6°C° 0 mm 2 mps 764 mmHg 29%
    08:00 -5°C° 0 mm 2 mps 763 mmHg 27%
    09:00 -4°C° 0 mm 2 mps 763 mmHg 25%
    10:00 -5°C° 0 mm 3 mps 762 mmHg 23%
    11:00 -4°C° 0 mm 3 mps 762 mmHg 22%
    12:00 -2°C° 0 mm 3 mps 761 mmHg 20%
    13:00 0°C° 0 mm 3 mps 761 mmHg 19%
    14:00 -1°C° 0 mm 3 mps 760 mmHg 21%
    15:00 -1°C° 0 mm 3 mps 760 mmHg 22%
    16:00 -2°C° 0 mm 3 mps 759 mmHg 24%
    17:00 -2°C° 0 mm 3 mps 759 mmHg 25%
    18:00 -4°C° 0 mm 3 mps 758 mmHg 26%
    19:00 -4°C° 0 mm 3 mps 758 mmHg 28%
    20:00 -4°C° 0 mm 3 mps 758 mmHg 28%
    21:00 -5°C° 0 mm 3 mps 757 mmHg 29%
    22:00 -5°C° 0 mm 3 mps 757 mmHg 29%
    23:00 -5°C° 0 mm 3 mps 757 mmHg 29%

    Tomorrow, 18 November, Sunday

    Time Temperature Precipitation Wind Pressure Humidity
    00:00 -4°C° 0 mm 3 mps 756 mmHg 29%
    01:00 -4°C° 0 mm 3 mps 756 mmHg 29%
    02:00 -4°C° 0 mm 3 mps 756 mmHg 28%
    03:00 -5°C° 0 mm 3 mps 755 mmHg 28%
    04:00 -5°C° 0 mm 3 mps 755 mmHg 28%
    05:00 -5°C° 0 mm 3 mps 755 mmHg 28%
    06:00 -5°C° 0 mm 3 mps 754 mmHg 28%
    07:00 -5°C° 0 mm 3 mps 754 mmHg 28%
    08:00 -4°C° 0 mm 3 mps 754 mmHg 26%
    09:00 -4°C° 0 mm 4 mps 754 mmHg 25%
    10:00 -3°C° 0 mm 4 mps 754 mmHg 24%
    11:00 -2°C° 0 mm 4 mps 754 mmHg 23%
    12:00 -2°C° 0 mm 4 mps 754 mmHg 23%
    13:00 -1°C° 0 mm 4 mps 754 mmHg 22%
    14:00 0°C° 0 mm 3 mps 754 mmHg 24%
    15:00 -1°C° 0 mm 3 mps 754 mmHg 26%
    16:00 -2°C° 0 mm 3 mps 754 mmHg 28%
    17:00 -2°C° 0 mm 3 mps 754 mmHg 29%
    18:00 -4°C° 0 mm 3 mps 754 mmHg 29%
    19:00 -5°C° 0 mm 3 mps 754 mmHg 30%
    20:00 -5°C° 0 mm 3 mps 754 mmHg 30%
    21:00 -4°C° 0 mm 2 mps 754 mmHg 30%
    22:00 -4°C° 0 mm 2 mps 754 mmHg 30%
    23:00 -4°C° 0 mm 2 mps 755 mmHg 30%

    Day after tomorrow, 19 November, Monday

    Time Temperature Precipitation Wind Pressure Humidity
    00:00 -4°C° 0 mm 2 mps 755 mmHg 30%
    01:00 -4°C° 0 mm 2 mps 755 mmHg 30%
    02:00 -3°C° 0 mm 1 mps 755 mmHg 30%
    03:00 -3°C° 0 mm 1 mps 755 mmHg 31%
    04:00 -3°C° 0 mm 1 mps 755 mmHg 31%
    05:00 -3°C° 0 mm 1 mps 755 mmHg 31%
    06:00 -4°C° 0 mm 0 mps 756 mmHg 31%
    07:00 -4°C° 0 mm 0 mps 756 mmHg 32%
    08:00 -3°C° 0 mm 0 mps 756 mmHg 30%
    09:00 -3°C° 0 mm 0 mps 757 mmHg 29%
    10:00 -2°C° 0 mm 0 mps 757 mmHg 28%
    11:00 -1°C° 0 mm 0 mps 757 mmHg 27%
    12:00 0°C° 0 mm 1 mps 757 mmHg 25%
    13:00 +1°C° 0 mm 1 mps 757 mmHg 24%
    14:00 +1°C° 0 mm 1 mps 758 mmHg 26%
    15:00 0°C° 0 mm 1 mps 758 mmHg 28%
    16:00 -2°C° 0 mm 2 mps 758 mmHg 31%
    17:00 -3°C° 0 mm 2 mps 758 mmHg 32%
    18:00 -3°C° 0 mm 2 mps 758 mmHg 34%
    19:00 -4°C° 0 mm 2 mps 758 mmHg 35%
    20:00 -4°C° 0 mm 2 mps 758 mmHg 38%
    21:00 -4°C° 0 mm 2 mps 759 mmHg 40%
    22:00 -4°C° 0 mm 2 mps 759 mmHg 42%
    23:00 -5°C° 0 mm 2 mps 759 mmHg 46%

    20 November, Tuesday

    Time Temperature Precipitation Wind Pressure Humidity
    00:00 -5°C° 0 mm 2 mps 759 mmHg 49%
    01:00 -5°C° 0 mm 2 mps 759 mmHg 53%
    02:00 -5°C° 0 mm 2 mps 759 mmHg 57%
    03:00 -5°C° 0 mm 2 mps 759 mmHg 61%
    04:00 -5°C° 0 mm 2 mps 759 mmHg 65%
    05:00 -5°C° 0 mm 2 mps 759 mmHg 70%
    06:00 -5°C° 0 mm 2 mps 759 mmHg 74%
    07:00 -5°C° 0 mm 2 mps 759 mmHg 79%
    08:00 -5°C° 0 mm 2 mps 759 mmHg 80%
    09:00 -4°C° 0 mm 2 mps 759 mmHg 81%
    10:00 -3°C° 0 mm 2 mps 760 mmHg 82%
    11:00 -2°C° 0 mm 2 mps 759 mmHg 80%
    12:00 -2°C° 0 mm 2 mps 759 mmHg 78%
    13:00 -1°C° 0 mm 2 mps 759 mmHg 76%
    14:00 -1°C° 0 mm 2 mps 759 mmHg 79%
    15:00 -2°C° 0 mm 2 mps 759 mmHg 83%
    16:00 -2°C° 0 mm 2 mps 759 mmHg 86%
    17:00 -3°C° 0 mm 2 mps 758 mmHg 87%
    18:00 -3°C° 0 mm 2 mps 758 mmHg 89%
    19:00 -3°C° 0 mm 2 mps 758 mmHg 91%
    20:00 -2°C° 0 mm 1 mps 758 mmHg 91%
    21:00 -2°C° 0 mm 1 mps 758 mmHg 91%
    22:00 -2°C° 0 mm 1 mps 758 mmHg 92%
    23:00 -2°C° 0 mm 1 mps 757 mmHg 92%

    21 November, Wednesday

    Time Temperature Precipitation Wind Pressure Humidity
    00:00 -2°C° 0 mm 1 mps 757 mmHg 92%
    01:00 -2°C° 0 mm 1 mps 757 mmHg 92%
    02:00 -2°C° 0 mm 1 mps 757 mmHg 92%
    03:00 -2°C° 0 mm 1 mps 756 mmHg 92%
    04:00 -2°C° 0 mm 1 mps 756 mmHg 92%
    05:00 -2°C° 0 mm 1 mps 756 mmHg 92%
    06:00 -3°C° 0 mm 1 mps 755 mmHg 92%
    07:00 -5°C° 0 mm 2 mps 755 mmHg 92%
    08:00 -4°C° 0 mm 2 mps 755 mmHg 89%
    09:00 -4°C° 0 mm 2 mps 755 mmHg 85%
    10:00 -3°C° 0 mm 2 mps 755 mmHg 82%
    11:00 -3°C° 0 mm 2 mps 754 mmHg 76%
    12:00 -2°C° 0 mm 2 mps 754 mmHg 70%
    13:00 -2°C° 0 mm 2 mps 753 mmHg 64%
    14:00 -2°C° 0 mm 2 mps 753 mmHg 63%
    15:00 -2°C° 0 mm 2 mps 753 mmHg 62%
    16:00 -2°C° 0 mm 2 mps 752 mmHg 60%
    17:00 -3°C° 0 mm 2 mps 752 mmHg 60%
    18:00 -3°C° 0 mm 2 mps 752 mmHg 60%
    19:00 -3°C° 0 mm 2 mps 751 mmHg 60%
    20:00 -3°C° 0 mm 2 mps 751 mmHg 63%
    21:00 -3°C° 0 mm 2 mps 751 mmHg 66%
    22:00 -3°C° 0 mm 2 mps 750 mmHg 69%
    23:00 -4°C° 0 mm 3 mps 750 mmHg 72%

    22 November, Thursday

    Time Temperature Precipitation Wind Pressure Humidity
    00:00 -5°C° 0 mm 3 mps 750 mmHg 75%
    01:00 -5°C° 0 mm 3 mps 749 mmHg 78%
    02:00 -5°C° 0 mm 3 mps 749 mmHg 79%
    03:00 -5°C° 0 mm 3 mps 748 mmHg 80%
    04:00 -5°C° 0 mm 3 mps 748 mmHg 81%
    05:00 -6°C° 0 mm 3 mps 748 mmHg 80%
    06:00 -6°C° 0 mm 3 mps 747 mmHg 80%
    07:00 -5°C° 0 mm 2 mps 747 mmHg 79%
    08:00 -6°C° 0 mm 3 mps 747 mmHg 79%
    09:00 -6°C° 0 mm 3 mps 747 mmHg 79%
    10:00 -5°C° 0 mm 3 mps 747 mmHg 78%
    11:00 -5°C° 0 mm 3 mps 747 mmHg 76%
    12:00 -4°C° 0 mm 4 mps 747 mmHg 74%
    13:00 -4°C° 0 mm 4 mps 747 mmHg 71%
    14:00 -4°C° 0 mm 3 mps 747 mmHg 69%
    15:00 -5°C° 0 mm 3 mps 747 mmHg 66%
    16:00 -5°C° 0 mm 3 mps 747 mmHg 64%
    17:00 -5°C° 0 mm 3 mps 747 mmHg 64%
    18:00 -5°C° 0 mm 2 mps 747 mmHg 64%
    19:00 -6°C° 0 mm 2 mps 748 mmHg 64%
    20:00 -6°C° 0 mm 2 mps 748 mmHg 65%
    21:00 -6°C° 0 mm 2 mps 748 mmHg 65%
    22:00 -6°C° 0 mm 2 mps 748 mmHg 66%
    23:00 -7°C° 0 mm 2 mps 748 mmHg 69%
    Show more